Location: Unspecified
(43.0000°N, 0.0000°E)
Time: 15:26:59
(UTC+00:00)

STARS - Visible Passes

Search period start: 21 July 2019 00:00
Search period end: 31 July 2019 00:00
Orbit: 624 x 641 km, 98.3° (Epoch: 20 July)

Date Brightness Start Highest point End Pass type
(mag) Time Alt. Az. Time Alt. Az. Time Alt. Az.
21 Jul ? 20:42:07 10° N 20:46:04 34° WNW 20:50:02 10° SW visible
22 Jul ? 21:03:39 10° NNW 21:07:00 22° WNW 21:10:21 10° WSW visible
23 Jul ? 21:25:35 10° NNW 21:27:51 14° WNW 21:30:08 10° W visible
24 Jul ? 20:08:45 10° N 20:13:09 78° WNW 20:17:31 10° SSW visible
25 Jul ? 20:29:57 10° N 20:34:10 46° WNW 20:38:21 10° SW visible
26 Jul ? 20:51:21 10° N 20:55:07 29° WNW 20:58:53 10° SW visible
27 Jul ? 21:13:00 10° NNW 21:16:01 18° WNW 21:19:02 10° WSW visible
28 Jul ? 19:56:45 10° NNE 20:01:10 78° ESE 20:05:34 10° S visible
28 Jul ? 21:35:16 10° NW 21:36:51 12° WNW 21:38:26 10° W visible
29 Jul ? 20:17:52 10° N 20:22:13 63° WNW 20:26:34 10° SSW visible
30 Jul ? 20:39:08 10° N 20:43:13 38° WNW 20:47:17 10° SW visible
